Location: Gälforsberget
(66.6500°N, 22.4167°E)
Time: 20:34:34
(UTC+00:00)

CZ-2C R/B - Pass Details

Date: 11 April 2026
Orbit: 702 x 901 km, 98.2° (Epoch: 16 May)

Event Time Altitude Azimuth Distance (km) Brightness Sun altitude
Rises 22:45:37 0° 20° (NNE) 3,139 7.7 -14.7°
Reaches altitude 10° 22:47:53 10° 24° (NNE) 2,232 6.6 -14.7°
Maximum altitude 22:52:44 62° 105° (ESE) 847 3.1 -14.7°
Enters shadow 22:55:54 23° 180° (S) 1,604 4.0 -14.6°
